Location: Newark
(40.7066°N, 111.8219°W)
Time: 02:43:19
(UTC+00:00)

Transit 2A Rocket - Pass Details

Date: 25 November 2019
Orbit: 594 x 909 km, 66.7° (Epoch: 09 December)

Event Time Altitude Azimuth Distance (km) Brightness Sun altitude
Rises 03:19:43 0° 204° (SSW) 3,087 8.4 -36.9°
Enters shadow 03:20:11 - 204° (SSW) 2,905 8.2 -36.9°
Reaches altitude 10° 03:22:08 10° 203° (SSW) 2,124 - -37.3°
Maximum altitude 03:26:54 77° 118° (ESE) 667 - -38.2°
Drops below altitude 10° 03:31:21 10° 33° (NNE) 1,987 - -39.1°
Sets 03:33:33 0° 32° (NNE) 2,872 - -39.5°
